Weather History for Trieste, Italy

Change the Weather History Date:

Wednesday, November 21, 2012

  Actual Average Record
Temperature  
Mean Temperature 56 °F -  
Max Temperature 61 °F 49 °F 64 °F (2002)
Min Temperature 51 °F 42 °F 33 °F (1998)
Degree Days  
Heating Degree Days 9    
Growing Degree Days 6 (Base 50)    
Moisture  
Dew Point 42 °F    
Average Humidity 61    
Maximum Humidity 72    
Minimum Humidity 43    
Precipitation  
Precipitation 0.00 in 0.13 in - ()
Sea Level Pressure  
Sea Level Pressure 30.06 in    
Wind  
Wind Speed 15 mph ()    
Max Wind Speed 24 mph    
Max Gust Speed 46 mph    
Visibility 12.0 miles    
Events      
Averages and records for this station are not official NWS values.
T = Trace of Precipitation, MM = Missing Value Source: Averaged Metar Reports

Daily Weather History Graph

Daily Weather History Graph

Search for Another Location

Airport:

Trip Planner

Search our weather history database for the weather conditions in past years. The results will help you decide how hot, cold, wet, or windy it might be!

Date:

Astronomy

Nov. 21, 2012 Rise Set
Actual Time 7:13 AM CET 4:28 PM CET
Civil Twilight 6:40 AM CET 5:01 PM CET
Nautical Twilight 6:03 AM CET 5:37 PM CET
Astronomical Twilight 5:28 AM CET 6:13 PM CET
Moon 12:54 PM CET (11/21) No Moon Set
Length of Visible Light 10h 21m
Length of Day
9h 15m
First Quarter, 59% of the Moon is Illuminated
Nov 21
First Quarter
Nov 28
Full
Dec 6
Last Quarter
Dec 13
New
Dec 20
First Quarter

Hourly Weather History & Observations

Time (CET) Temp. Dew Point Humidity Pressure Visibility Wind Dir Wind Speed Gust Speed Precip Events Conditions
12:55 AM 51.8 °F 41.0 °F 67% 30.04 in - NE 18.4 mph 36.8 mph N/A   Clear
1:00 AM 53 °F 41 °F 52% 30.06 in 12 mi NE 18.4 mph - -  
1:55 AM 53.6 °F 41.0 °F 62% 30.04 in - ENE 20.7 mph 39.1 mph N/A   Clear
2:55 AM 53.6 °F 41.0 °F 62% 30.04 in - ENE 24.2 mph 46.0 mph N/A   Clear
3:55 AM 53.6 °F 41.0 °F 62% 30.04 in - ENE 19.6 mph 40.3 mph N/A   Clear
4:55 AM 53.6 °F 41.0 °F 62% 30.04 in - ENE 20.7 mph 40.3 mph N/A   Clear
5:55 AM 53.6 °F 41.0 °F 62% 30.04 in - ENE 19.6 mph 41.4 mph N/A   Clear
6:55 AM 53.6 °F 41.0 °F 62% 30.04 in - ENE 23.0 mph 41.4 mph N/A   Clear
7:00 AM 53 °F 42 °F 56% 30.06 in 12 mi ENE 23.0 mph - -  
7:55 AM 53.6 °F 41.0 °F 62% 30.04 in - ENE 18.4 mph 36.8 mph N/A   Clear
8:55 AM 55.4 °F 42.8 °F 63% 30.06 in - ENE 18.4 mph 35.7 mph N/A   Clear
9:55 AM 57.2 °F 42.8 °F 59% 30.06 in - ENE 13.8 mph 29.9 mph N/A   Clear
10:55 AM 59.0 °F 42.8 °F 55% 30.06 in - ENE 12.7 mph 25.3 mph N/A   Clear
11:55 AM 60.8 °F 42.8 °F 52% 30.06 in - ENE 12.7 mph 25.3 mph N/A   Clear
12:55 PM 60.8 °F 44.6 °F 55% 30.06 in - ENE 10.4 mph 23.0 mph N/A   Clear
1:00 PM 61 °F 44 °F 43% 30.08 in 12 mi ENE 10.4 mph - -   Clear
1:55 PM 60.8 °F 44.6 °F 55% 30.06 in - ENE 11.5 mph 23.0 mph N/A   Clear
2:55 PM 60.8 °F 44.6 °F 55% 30.06 in - ENE 10.4 mph - N/A   Clear
3:55 PM 57.2 °F 42.8 °F 59% 30.06 in - ENE 13.8 mph - N/A   Clear
4:55 PM 55.4 °F 42.8 °F 63% 30.06 in - ENE 12.7 mph 26.5 mph N/A   Clear
5:55 PM 53.6 °F 42.8 °F 67% 30.06 in - East 9.2 mph - N/A   Clear
6:55 PM 53.6 °F 42.8 °F 67% 30.06 in - ENE 12.7 mph - N/A   Clear
7:55 PM 53.6 °F 42.8 °F 67% 30.09 in - ENE 13.8 mph - N/A   Clear
8:55 PM 53.6 °F 42.8 °F 67% 30.09 in - ENE 13.8 mph - N/A   Clear
9:55 PM 53.6 °F 42.8 °F 67% 30.09 in - East 10.4 mph - N/A   Clear
10:55 PM 53.6 °F 42.8 °F 67% 30.09 in - East 9.2 mph - N/A   Clear
11:55 PM 53.6 °F 44.6 °F 72% 30.12 in - Calm Calm - N/A   Clear